Ana Sayfa
METAR-TAF:

METAR-TAF

Havaalanları :

Sussex Airport

Sussex, New Jersey, Amerika Birleşik Devletleri

Enlem: 41-12-01N, Boylam: 074-37-23W, yükseklik: 128 m

Güncel hava durumu gözlemi

Rapor saat 19:53 UTC de 39 dakika önce yapıldı.
Sakin rüzgar
Sıcaklık 8°C
Nem 71%
Basınç 1015 hPa
Görüş mesafesi: 16.1 km
2500 ft yükseklikte çok bulutlu

METAR: KFWN 311953Z AUTO 00000KT 10SM OVC025 08/03 A2996 RMK AO2 SLP147 T00780028

Saat: 16:32 (20:32 UTC)


TAF: eksik

4.000'den fazla havaalanı için hava durumu gözlemleri ve tahminleri (METAR ve TAF raporları).

Kullanılabilir istasyonlar harita üzerinde sarı ve kırmızı noktalarla gösterilir.

İstasyonun adını görmek için fareyi noktanın üzerinde gezdirin.

Sonrasında hava gözlem ve tahminlerini görmek için tıklayın.

Haritayı değiştirmek için: yaklaştırmak için siyah artı işaretli yeşil düğmeye ve uzaklaştırmak için de eksi işaretli düğmeye hızla tıklayın; bitişik haritalar için yeşil okları kullanın.


METAR-TAF: